Regional Weather Roundup
Issued by NWS Charleston, SC

Current Version | Previous Version | Graphics & Text | Print | Product List | Glossary On
Versions: 1 2 3 4 5 6 7 8 9 10 11 12 13 14 15 16 17 18 19 20 21 22 23 24 25 26 27 28 29 30 31 32 33 34 35 36 37 38 39 40 41 42 43 44 45 46 47 48 49 50
000
ASUS42 KCHS 280010
RWRCHS

REGIONAL WEATHER ROUNDUP
NATIONAL WEATHER SERVICE CHARLESTON SC
700 PM EST THU NOV 27 2014

NOTE: "FAIR" INDICATES FEW OR NO CLOUDS BELOW 12,000 FEET WITH NO
SIGNIFICANT WEATHER AND/OR OBSTRUCTIONS TO VISIBILITY.

NOT ALL STATIONS ARE QUALITY CONTROLLED BY THE NATIONAL
WEATHER SERVICE. USE DATA WITH CAUTION...ESPECIALLY
DEWPOINT OBSERVATIONS.

SCZ027-030-031-034>040-042>050-280100-
...SOUTHEAST SOUTH CAROLINA...

CITY           SKY/WX    TMP DP  RH WIND       PRES   REMARKS
N CHARLESTON   CLEAR     47  32  56 W5        30.22R
6HR MIN TEMP:  47; 6HR MAX TEMP:  57;

WATERFRONT PRK   N/A     48 N/A N/A SW5         N/A
MOUNT PLEASANT FAIR      45  36  70 CALM      30.21R
JOHNS ISLAND   CLEAR     46  37  71 CALM      30.23R
PINOPOLIS        N/A     52  37  58 W8        30.14R
MONCKS CORNER  FAIR      45  39  81 CALM      30.21R
SUMMERVILLE    FAIR      43  37  81 W3        30.23R
BEAUFORT MCAS  CLEAR     44  35  70 W6        30.24R
6HR MIN TEMP:  44; 6HR MAX TEMP:  58;

BEAUFORT ARPT  FAIR      46  36  66 W5        30.24R
HILTON HEAD IS CLEAR     48  34  57 CALM      30.26R
WALTERBORO     CLEAR     43  32  65 W3        30.24R
ALLENDALE      FAIR      46  34  61 CALM      30.24R

...SOUTHERN MIDLANDS AND PEE DEE...

CITY           SKY/WX    TMP DP  RH WIND       PRES   REMARKS
GEORGETOWN     NOT AVBL
KINGSTREE      NOT AVBL
ORANGEBURG     CLEAR     47  30  51 W6        30.23R
6HR MIN TEMP:  47; 6HR MAX TEMP:  56;

BARNWELL       FAIR      45  32  61 W6        30.25R
AIKEN          FAIR      45  32  61 W8        30.28R
MANNING        NOT AVBL
COLUMBIA       PTCLDY    49  30  48 W13       30.23R
6HR MIN TEMP:  46; 6HR MAX TEMP:  56;

SUMTER         CLEAR     46  29  49 NW9       30.20R
6HR MIN TEMP:  46; 6HR MAX TEMP:  56;

FLORENCE       CLOUDY    42  37  82 NW3       30.20R
6HR MIN TEMP:  42; 6HR MAX TEMP:  55;

MYRTLE BEACH   CLEAR     46  36  66 NW6       30.19R
N MYRTLE BEACH CLEAR     45  37  73 NW5       30.19R
6HR MIN TEMP:  45; 6HR MAX TEMP:  56;


$$

GAZ063-065-086>088-099>101-113>116-118-119-134>141-150-280100-
...SOUTHEAST GEORGIA...

CITY           SKY/WX    TMP DP  RH WIND       PRES   REMARKS
SAVANNAH ARPT  CLEAR     47  33  58 W3        30.27R
6HR MIN TEMP:  47; 6HR MAX TEMP:  58;

HUNTER AAF     CLEAR     45  32  61 W8        30.24R
6HR MIN TEMP:  45; 6HR MAX TEMP:  57;

FORT STEWART   CLEAR     45  33  63 W7        30.26R
6HR MIN TEMP:  45; 6HR MAX TEMP:  57;

STATESBORO     NOT AVBL
SYLVANIA       CLEAR     45  37  74 W3        30.27R
CLAXTON        FAIR      46  16  29 NW5       30.28R

...CSRA...CENTRAL AND FAR SOUTHEAST GEORGIA...

CITY           SKY/WX    TMP DP  RH WIND       PRES   REMARKS
THOMSON        CLEAR     45  33  65 NW10      30.33R
AUGUSTA-BUSH   CLEAR     46  28  49 NW12G21   30.27R
6HR MIN TEMP:  46; 6HR MAX TEMP:  54;

AUGUSTA-DANIEL CLEAR     47  28  47 NW10      30.27R
SWAINSBORO     FAIR      46  34  61 NW8       30.29R
VIDALIA        CLEAR     46  32  57 NW3       30.29R
HAZLEHURST     FAIR      48  33  56 CALM      30.29R
ALMA           CLEAR     47  31  53 NW3       30.29R
6HR MIN TEMP:  46; 6HR MAX TEMP:  56;

WAYCROSS       CLEAR     49  36  61 NW7       30.29R
JESUP          FAIR      50  36  57 NW6       30.28R
BAXLEY         FAIR      48  32  53 NW7       30.28R
BRUNSWICK      CLEAR     46  34  61 CALM      30.28R
SAINT SIMONS   CLEAR     50  32  50 W6        30.27R
6HR MIN TEMP:  49; 6HR MAX TEMP:  58;


$$

SCZ027-028-034-036>038-045-046-048>050-GAZ119-141-280100-
...LAKE AND SUPPLEMENTAL COASTAL OBSERVATIONS...

STATION/POSITION TIME  TEMP    WIND        PRES    WAVE   SWELL
                       AIR SEA DIR/SP/G            HT/PER HT/PER/DIR
                 (UTC) (F)     (DEG/KT/KT) (MB)    (FT/S) (FT/S/D)
UPR LAKE MARION  NOT AVBL
WINYAH BAY       2300   47     300/  2     1021.0S
LAKE MURRAY      2300   48     320/  1/  7 1022.7R
ACE BASIN NERRS  2300   49     290/  3     1023.0R
FORT PULASKI     0000   50     300/  7/  9 1024.6R
SAPELO ISLAND    2300   51     310/  6     1024.0R

$$

ANZ835-935-AMZ111-154-330-350-352-354-370-450-454-472-280100-
...C-MAN AND BUOY OBSERVATIONS...

STATION/POSITION TIME  TEMP    WIND        PRES    WAVE   SWELL
                       AIR SEA DIR/SP/G            HT/PER HT/PER/DIR
                 (UTC) (F)     (DEG/KT/KT) (MB)    (FT/S) (FT/S/D)
FOLLY BEACH CMAN 2300   48     290/  3/  4 1023.1R
BUOY 41004       0000   56 72  310/ 21/ 27 1021.6R   6/ 6   2/ 9
BUOY 41008       0000   55 63  320/ 19/ 25 1023.9R   3/ 4
CAPERS NEARSHORE 2300   53     330/ 12/ 16   N/A
FRIPP NEARSHORE  NOT AVBL


STATION/POSITION TIME  TEMP    WIND        PRES    WAVE   SWELL
                       AIR SEA DIR/SP/G            HT/PER HT/PER/DIR
                 (UTC) (F)     (DEG/KT/KT) (MB)    (FT/S) (FT/S/D)
5E ST. MARYS GA  0000      62                N/A     3/ 3
FRYING PAN BUOY  0000   52 70  340/ 21/ 25 1021.1R   7/ 6   2/350/14
BUOY 41025       0000   51     320/ 21/ 27 1017.1R   6/ 5   2/140/ 9
CAPE LOOKOUT NC  2300   48     320/ 22/ 26 1018.9R
BUOY 41002       NOT AVBL
BUOY 41010       0000   65 78  320/ 19/ 25 1021.2R   8/ 8   3/ 70/14
ST AUGUSTINE FL  0000   52     330/ 10/ 11 1025.2R


$$



USA.gov is the U.S. government's official web portal to all federal, state and local government web resources and services.